Oxford, CT

11:20 AM EST on December 12, 2017 (GMT -0500)
Waterbury-Oxford

Weather History for KOXC - September, 2012

Change the Weather History Date:

Monday, September 24, 2012

  Actual Average Record
Temperature  
Mean Temperature 60 °F -  
Max Temperature 78 °F 65 °F 88 °F (2017)
Min Temperature 42 °F 48 °F 35 °F (1998)
Degree Days  
Heating Degree Days 5    
Growing Degree Days 10 (Base 50)    
Moisture  
Dew Point 40 °F    
Average Humidity 75    
Maximum Humidity 93    
Minimum Humidity 42    
Precipitation  
Precipitation 0.00 in - - ()
Sea Level Pressure  
Sea Level Pressure 30.14 in    
Wind  
Wind Speed 2 mph (NNW)    
Max Wind Speed 12 mph    
Max Gust Speed -    
Visibility 10 miles    
Events Fog    
Averages and records for this station are not official NWS values.
T = Trace of Precipitation, MM = Missing Value Source: NWS Daily Summary

Daily Weather History Graph

Daily Weather History Graph

Search for Another Location

Airport or City:

Trip Planner

Search our weather history database for the weather conditions in past years. The results will help you decide how hot, cold, wet, or windy it might be!

Date:

Astronomy

Sep. 24, 2012 Rise Set
Actual Time 6:42 AM EDT 6:45 PM EDT
Civil Twilight 6:14 AM EDT 7:13 PM EDT
Nautical Twilight 5:42 AM EDT 7:45 PM EDT
Astronomical Twilight 5:09 AM EDT 8:18 PM EDT
Moon 3:32 PM EDT (9/24) 12:52 AM EDT (9/24)
Length of Visible Light 12h 58m
Length of Day
12h 03m
Waxing Gibbous, 70% of the Moon is Illuminated
Sep 24
Waxing Gibbous
Sep 29
Full
Oct 8
Last Quarter
Oct 15
New
Oct 21
First Quarter

Hourly Weather History & Observations

Time (EDT) Temp. Windchill Dew Point Humidity Pressure Visibility Wind Dir Wind Speed Gust Speed Precip Events Conditions
12:15 AM 44.6 °F 43.1 °F 41.0 °F 87% 30.13 in 10.0 mi NNE 3.5 mph - N/A   Clear
12:35 AM 44.6 °F - 39.2 °F 81% 30.13 in 10.0 mi Calm Calm - N/A   Clear
12:55 AM 44.6 °F - 39.2 °F 81% 30.13 in 10.0 mi Calm Calm - N/A   Clear
1:15 AM 44.6 °F 43.1 °F 39.2 °F 81% 30.14 in 10.0 mi North 3.5 mph - N/A   Clear
1:35 AM 42.8 °F - 37.4 °F 81% 30.14 in 10.0 mi Calm Calm - N/A   Clear
1:55 AM 42.8 °F - 39.2 °F 87% 30.14 in 10.0 mi Calm Calm - N/A   Clear
2:15 AM 42.8 °F - 39.2 °F 87% 30.13 in 10.0 mi Calm Calm - N/A   Clear
3:35 AM 42.8 °F 40.1 °F 37.4 °F 81% 30.12 in 10.0 mi East 4.6 mph - N/A   Clear
3:55 AM 42.8 °F - 37.4 °F 81% 30.12 in 10.0 mi Calm Calm - N/A   Partly Cloudy
4:15 AM 42.8 °F - 39.2 °F 87% 30.13 in 10.0 mi Calm Calm - N/A   Mostly Cloudy
4:35 AM 42.8 °F - 39.2 °F 87% 30.13 in 10.0 mi Calm Calm - N/A   Overcast
4:55 AM 42.8 °F - 39.2 °F 87% 30.13 in 10.0 mi Calm Calm - N/A   Overcast
5:15 AM 44.6 °F 43.1 °F 39.2 °F 81% 30.14 in 10.0 mi NW 3.5 mph - N/A   Overcast
5:35 AM 44.6 °F 41.4 °F 41.0 °F 87% 30.14 in 10.0 mi NNE 5.8 mph - N/A   Overcast
5:45 AM 44.6 °F - 41.0 °F 87% 30.14 in 10.0 mi Calm Calm - N/A   Overcast
6:45 AM 44.6 °F 43.1 °F 42.8 °F 93% 30.15 in 10.0 mi North 3.5 mph - N/A Fog Patches of Fog
7:45 AM 46.4 °F - 42.8 °F 87% 30.17 in 10.0 mi Calm Calm - N/A   Mostly Cloudy
8:45 AM 46.4 °F - 42.8 °F 87% 30.17 in 10.0 mi Calm Calm - N/A Fog Patches of Fog
9:45 AM 53.6 °F - 42.8 °F 67% 30.18 in 10.0 mi Calm Calm - N/A   Scattered Clouds
10:45 AM 55.4 °F - 42.8 °F 63% 30.18 in 10.0 mi Calm Calm - N/A   Partly Cloudy
11:45 AM 59.0 °F - 37.4 °F 45% 30.16 in 10.0 mi NW 9.2 mph - N/A   Partly Cloudy
1:45 PM 60.8 °F - 39.2 °F 45% 30.14 in 10.0 mi West 11.5 mph - N/A   Mostly Cloudy
2:45 PM 62.6 °F - 39.2 °F 42% 30.13 in 10.0 mi WNW 11.5 mph - N/A   Mostly Cloudy
3:45 PM 60.8 °F - 37.4 °F 42% 30.11 in 10.0 mi NW 11.5 mph - N/A   Scattered Clouds
4:45 PM 78.8 °F - 55.4 °F 44% 30.11 in 10.0 mi West 5.8 mph - N/A   Scattered Clouds
5:45 PM 60.8 °F - 37.4 °F 42% 30.12 in 10.0 mi West 5.8 mph - N/A   Scattered Clouds
6:45 PM 55.4 °F - 39.2 °F 54% 30.13 in 10.0 mi Calm Calm - N/A   Partly Cloudy
7:45 PM 50.0 °F - 42.8 °F 76% 30.13 in 10.0 mi Calm Calm - N/A   Clear
8:45 PM 46.4 °F - 41.0 °F 81% 30.10 in 10.0 mi Calm Calm - N/A   Clear
9:15 PM 44.6 °F - 39.2 °F 81% 30.15 in 10.0 mi Calm Calm - N/A   Clear
9:35 PM 44.6 °F - 39.2 °F 81% 30.15 in 10.0 mi Calm Calm - N/A   Clear
9:55 PM 44.6 °F - 39.2 °F 81% 30.15 in 10.0 mi Calm Calm - N/A   Clear
10:15 PM 44.6 °F - 39.2 °F 81% 30.15 in 10.0 mi Calm Calm - N/A   Clear
10:35 PM 44.6 °F - 39.2 °F 81% 30.15 in 10.0 mi Calm Calm - N/A   Clear
11:15 PM 44.6 °F - 39.2 °F 81% 30.15 in 10.0 mi Calm Calm - N/A   Clear
11:35 PM 44.6 °F - 37.4 °F 76% 30.15 in 10.0 mi Calm Calm - N/A   Clear